,,Stat5,,Stat1,,Stat2,,Stat3,,Stat4,,Wind1,,Wind1,
time,status,PA1M_AVG,status,PR1M_SUM,status,RH1M_AVG,status,SR1M_AVG,status,TA1M_AVG,status,W1dAve1m,status,W1sAve1m,
2002-01-02, 00:00:00,VALID,920.49,VALID,0,VALID,97.499,VALID,0,VALID,18.9048,VALID,112,VALID,1.13997,
2002-01-02, 00:01:00,VALID,920.49,VALID,0,VALID,97.41,VALID,-0.0169808,VALID,18.9112,VALID,109,VALID,1.06791,
2002-01-02, 00:02:00,VALID,920.473,VALID,0,VALID,97.087,VALID,0,VALID,18.9108,VALID,94,VALID,0.700721,
2002-01-02, 00:03:00,VALID,920.47,VALID,0,VALID,97.1353,VALID,0,VALID,18.9304,VALID,89,VALID,0.90024,
2002-01-02, 00:04:00,VALID,920.459,VALID,0,VALID,96.9281,VALID,-0.0169808,VALID,18.9463,VALID,93,VALID,0.903988,
2002-01-02, 00:05:00,VALID,920.434,VALID,0,VALID,96.6114,VALID,-0.0169808,VALID,18.9424,VALID,83,VALID,0.709936,
2002-01-02, 00:06:00,VALID,920.416,VALID,0,VALID,96.1282,VALID,-0.0509425,VALID,18.9239,VALID,78,VALID,0.719866,
2002-01-02, 00:07:00,VALID,920.395,VALID,0,VALID,96.1689,VALID,-0.0849042,VALID,18.9145,VALID,89,VALID,0.686328,
2002-01-02, 00:08:00,VALID,920.385,VALID,0,VALID,96.1994,VALID,-0.0849042,VALID,18.9276,VALID,106,VALID,0.77908,
2002-01-02, 00:09:00,VALID,920.371,VALID,0,VALID,96.4296,VALID,-0.0849042,VALID,18.9403,VALID,103,VALID,1.0701,
2002-01-02, 00:10:00,VALID,920.35,VALID,0,VALID,96.3686,VALID,-0.118866,VALID,18.9892,VALID,118,VALID,1.144,
2002-01-02, 00:11:00,VALID,920.342,VALID,0,VALID,96.1435,VALID,-0.118866,VALID,19.0116,VALID,120,VALID,0.982319,
2002-01-02, 00:12:00,VALID,920.33,VALID,0,VALID,95.8841,VALID,-0.118866,VALID,19.0278,VALID,106,VALID,0.689823,
2002-01-02, 00:13:00,VALID,920.318,VALID,0,VALID,95.8459,VALID,-0.101885,VALID,19.0338,VALID,118,VALID,0.860008,
2002-01-02, 00:14:00,VALID,920.309,VALID,0,VALID,95.7989,VALID,-0.101885,VALID,19.0665,VALID,117,VALID,0.908036,
2002-01-02, 00:15:00,VALID,920.3,VALID,0,VALID,95.5916,VALID,-0.101885,VALID,19.0829,VALID,119,VALID,0.972451,
2002-01-02, 00:16:00,VALID,920.291,VALID,0,VALID,95.2686,VALID,-0.101885,VALID,19.0894,VALID,83,VALID,0.611275,
2002-01-02, 00:17:00,VALID,920.294,VALID,0,VALID,95.2928,VALID,-0.0849042,VALID,19.0725,VALID,101,VALID,0.731517,
2002-01-02, 00:18:00,VALID,920.293,VALID,0,VALID,95.3703,VALID,-0.101885,VALID,19.0921,VALID,108,VALID,0.441211,
2002-01-02, 00:19:00,VALID,920.299,VALID,0,VALID,95.3169,VALID,-0.0849042,VALID,19.1053,VALID,110,VALID,0.530222,
2002-01-02, 00:20:00,VALID,920.307,VALID,0,VALID,95.4288,VALID,-0.0849042,VALID,19.1277,VALID,128,VALID,0.201069,
2002-01-02, 00:21:00,VALID,920.333,VALID,0,VALID,95.2394,VALID,-0.0849042,VALID,19.1408,VALID,128,VALID,0,
2002-01-02, 00:22:00,VALID,920.344,VALID,0,VALID,95.0435,VALID,0,VALID,19.1198,VALID,128,VALID,0,
2002-01-02, 00:23:00,VALID,920.358,VALID,0,VALID,94.6277,VALID,0,VALID,19.0842,VALID,128,VALID,0,
2002-01-02, 00:24:00,VALID,920.349,VALID,0,VALID,94.5883,VALID,0.0169808,VALID,19.0653,VALID,128,VALID,0,
2002-01-02, 00:25:00,VALID,920.344,VALID,0,VALID,94.8248,VALID,0,VALID,19.0658,VALID,128,VALID,0.0590278,
2002-01-02, 00:26:00,VALID,920.343,VALID,0,VALID,95.1732,VALID,-0.0339617,VALID,19.0912,VALID,128,VALID,0.123481,
2002-01-02, 00:27:00,VALID,920.343,VALID,0,VALID,95.1211,VALID,0,VALID,19.1013,VALID,128,VALID,0,
2002-01-02, 00:28:00,VALID,920.352,VALID,0,VALID,94.3454,VALID,0.0169808,VALID,19.0266,VALID,128,VALID,0,
2002-01-02, 00:29:00,VALID,920.368,VALID,0,VALID,93.7223,VALID,0,VALID,18.9101,VALID,128,VALID,0,
2002-01-02, 00:30:00,VALID,920.366,VALID,0,VALID,94.0377,VALID,0,VALID,18.8392,VALID,128,VALID,0,
2002-01-02, 00:31:00,VALID,920.386,VALID,0,VALID,94.1483,VALID,0.0169808,VALID,18.7871,VALID,128,VALID,0,
2002-01-02, 00:32:00,VALID,920.386,VALID,0,VALID,94.6315,VALID,0,VALID,18.7712,VALID,128,VALID,0,
2002-01-02, 00:33:00,VALID,920.385,VALID,0,VALID,95.0995,VALID,0,VALID,18.8076,VALID,128,VALID,0,
2002-01-02, 00:34:00,VALID,920.375,VALID,0,VALID,95.1567,VALID,0.0169808,VALID,18.8067,VALID,128,VALID,0,
2002-01-02, 00:35:00,VALID,920.359,VALID,0,VALID,94.9533,VALID,0,VALID,18.7682,VALID,132,VALID,0,
2002-01-02, 00:36:00,VALID,920.332,VALID,0,VALID,95.2127,VALID,-0.0169808,VALID,18.7359,VALID,169,VALID,0.472128,
2002-01-02, 00:37:00,VALID,920.305,VALID,0,VALID,95.8218,VALID,-0.101885,VALID,18.7825,VALID,169,VALID,0.521998,
2002-01-02, 00:38:00,VALID,920.286,VALID,0,VALID,95.8523,VALID,-0.0849042,VALID,18.7793,VALID,169,VALID,0.576122,
2002-01-02, 00:39:00,VALID,920.281,VALID,0,VALID,96.0061,VALID,-0.101885,VALID,18.7825,VALID,164,VALID,0.480769,
2002-01-02, 00:40:00,VALID,920.28,VALID,0,VALID,96.1511,VALID,-0.101885,VALID,18.7631,VALID,164,VALID,0.478631,
2002-01-02, 00:41:00,VALID,920.276,VALID,0,VALID,96.319,VALID,-0.0849042,VALID,18.7726,VALID,171,VALID,0.407278,
2002-01-02, 00:42:00,VALID,920.258,VALID,0,VALID,96.2503,VALID,-0.101885,VALID,18.7696,VALID,125,VALID,0.297297,
2002-01-02, 00:43:00,VALID,920.235,VALID,0,VALID,96.4042,VALID,-0.101885,VALID,18.7505,VALID,123,VALID,0.434462,
2002-01-02, 00:44:00,VALID,920.204,VALID,0,VALID,96.7844,VALID,-0.118866,VALID,18.7738,VALID,143,VALID,0.767578,
2002-01-02, 00:45:00,VALID,920.169,VALID,0,VALID,97.0196,VALID,-0.0849042,VALID,18.8054,VALID,136,VALID,0.606702,
2002-01-02, 00:46:00,VALID,920.165,VALID,0,VALID,96.834,VALID,-0.101885,VALID,18.8183,VALID,101,VALID,0.605574,
2002-01-02, 00:47:00,VALID,920.138,VALID,0,VALID,96.82,VALID,-0.101885,VALID,18.8024,VALID,99,VALID,0.498437,
2002-01-02, 00:48:00,VALID,920.15,VALID,0,VALID,96.6305,VALID,-0.118866,VALID,18.7892,VALID,78,VALID,0.472321,
2002-01-02, 00:49:00,VALID,920.137,VALID,0,VALID,96.0583,VALID,-0.101885,VALID,18.7246,VALID,48,VALID,0.556332,
2002-01-02, 00:50:00,VALID,920.137,VALID,0,VALID,96.2236,VALID,-0.101885,VALID,18.6794,VALID,47,VALID,0.652444,
2002-01-02, 00:51:00,VALID,920.123,VALID,0,VALID,96.5364,VALID,-0.0849042,VALID,18.6856,VALID,47,VALID,0.615625,
2002-01-02, 00:52:00,VALID,920.114,VALID,0,VALID,96.544,VALID,-0.0169808,VALID,18.6752,VALID,46,VALID,0.44778,
2002-01-02, 00:53:00,VALID,920.1,VALID,0,VALID,96.427,VALID,-0.0339617,VALID,18.6395,VALID,27,VALID,0.607264,
2002-01-02, 00:54:00,VALID,920.088,VALID,0,VALID,96.5148,VALID,0.0169808,VALID,18.5876,VALID,26,VALID,0.654447,
2002-01-02, 00:55:00,VALID,920.08,VALID,0,VALID,96.7615,VALID,0,VALID,18.5908,VALID,20,VALID,0.503205,
2002-01-02, 00:56:00,VALID,920.076,VALID,0,VALID,96.9395,VALID,-0.0339617,VALID,18.5942,VALID,14,VALID,0.655449,
2002-01-02, 00:57:00,VALID,920.078,VALID,0,VALID,96.8988,VALID,0,VALID,18.594,VALID,9,VALID,0.390625,
2002-01-02, 00:58:00,VALID,920.081,VALID,0,VALID,96.998,VALID,0,VALID,18.5843,VALID,23,VALID,0.519141,
2002-01-02, 00:59:00,VALID,920.099,VALID,0,VALID,97.1391,VALID,-0.0169808,VALID,18.6268,VALID,21,VALID,0.105252,
2002-01-02, 01:00:00,VALID,920.11,VALID,0,VALID,97.1557,VALID,-0.0169808,VALID,18.6332,VALID,21,VALID,0,
2002-01-02, 01:01:00,VALID,920.114,VALID,0,VALID,97.0717,VALID,0,VALID,18.6231,VALID,21,VALID,0,
2002-01-02, 01:02:00,VALID,920.114,VALID,0,VALID,97.0044,VALID,0,VALID,18.6132,VALID,21,VALID,0,
2002-01-02, 01:03:00,VALID,920.108,VALID,0,VALID,97.0298,VALID,0,VALID,18.6102,VALID,21,VALID,0,
2002-01-02, 01:04:00,VALID,920.095,VALID,0,VALID,97.1798,VALID,0,VALID,18.6127,VALID,21,VALID,0,
2002-01-02, 01:05:00,VALID,920.065,VALID,0,VALID,97.2472,VALID,0,VALID,18.6521,VALID,21,VALID,0,
2002-01-02, 01:06:00,VALID,920.032,VALID,0,VALID,97.3388,VALID,-0.0169808,VALID,18.6748,VALID,21,VALID,0,
2002-01-02, 01:07:00,VALID,920.022,VALID,0,VALID,96.5161,VALID,0,VALID,18.6265,VALID,21,VALID,0,
2002-01-02, 01:08:00,VALID,920.003,VALID,0,VALID,95.308,VALID,0.0169808,VALID,18.4067,VALID,21,VALID,0.449886,
2002-01-02, 01:09:00,VALID,919.981,VALID,0,VALID,95.9896,VALID,0.0679233,VALID,18.3354,VALID,21,VALID,0.224805,
2002-01-02, 01:10:00,VALID,919.969,VALID,0,VALID,96.5669,VALID,0.0339617,VALID,18.329,VALID,21,VALID,0,
2002-01-02, 01:11:00,VALID,919.958,VALID,0,VALID,96.9166,VALID,0.0509425,VALID,18.3357,VALID,21,VALID,0,
2002-01-02, 01:12:00,VALID,919.951,VALID,0,VALID,97.0425,VALID,0.0849042,VALID,18.3352,VALID,21,VALID,0,
2002-01-02, 01:13:00,VALID,919.941,VALID,0,VALID,97.0946,VALID,0.0169808,VALID,18.3527,VALID,21,VALID,0,
2002-01-02, 01:14:00,VALID,919.962,VALID,0,VALID,97.1748,VALID,0,VALID,18.3523,VALID,34,VALID,0.254464,
2002-01-02, 01:15:00,VALID,919.947,VALID,0,VALID,97.0565,VALID,0.0169808,VALID,18.3393,VALID,48,VALID,0.528516,
2002-01-02, 01:16:00,VALID,919.928,VALID,0,VALID,97.7432,VALID,0.0169808,VALID,18.3811,VALID,69,VALID,0.706597,
2002-01-02, 01:17:00,VALID,919.905,VALID,0,VALID,98.0611,VALID,0.0339617,VALID,18.4648,VALID,88,VALID,0.821181,
2002-01-02, 01:18:00,VALID,919.865,VALID,0,VALID,98.248,VALID,0,VALID,18.5525,VALID,107,VALID,0.803285,
2002-01-02, 01:19:00,VALID,919.84,VALID,0,VALID,98.1844,VALID,0.0509425,VALID,18.6069,VALID,113,VALID,0.952303,
2002-01-02, 01:20:00,VALID,919.797,VALID,0,VALID,98.1259,VALID,0.0509425,VALID,18.6519,VALID,114,VALID,1.08532,
2002-01-02, 01:21:00,VALID,919.773,VALID,0,VALID,98.0064,VALID,0,VALID,18.6981,VALID,109,VALID,1.20059,
2002-01-02, 01:22:00,VALID,919.746,VALID,0,VALID,97.7495,VALID,-0.0339617,VALID,18.7246,VALID,109,VALID,1.1365,
2002-01-02, 01:23:00,VALID,919.709,VALID,0,VALID,97.5372,VALID,-0.101885,VALID,18.7539,VALID,111,VALID,1.125,
2002-01-02, 01:24:00,VALID,919.691,VALID,0,VALID,97.4685,VALID,-0.0679233,VALID,18.7927,VALID,113,VALID,1.30099,
2002-01-02, 01:25:00,VALID,919.67,VALID,0,VALID,97.1442,VALID,-0.101885,VALID,18.8252,VALID,114,VALID,1.12179,
2002-01-02, 01:26:00,VALID,919.653,VALID,0,VALID,96.9865,VALID,-0.101885,VALID,18.8538,VALID,121,VALID,1.05629,
2002-01-02, 01:27:00,VALID,919.643,VALID,0,VALID,97.0908,VALID,-0.0509425,VALID,18.899,VALID,114,VALID,1.46073,
2002-01-02, 01:28:00,VALID,919.62,VALID,0,VALID,97.0183,VALID,-0.0679233,VALID,18.9696,VALID,114,VALID,1.33203,
2002-01-02, 01:29:00,VALID,919.618,VALID,0,VALID,96.5504,VALID,-0.0849042,VALID,19.0384,VALID,123,VALID,0.890825,
2002-01-02, 01:30:00,VALID,919.602,VALID,0,VALID,96.2999,VALID,-0.0849042,VALID,19.0412,VALID,135,VALID,1.19812,
2002-01-02, 01:31:00,VALID,919.586,VALID,0,VALID,96.0952,VALID,-0.0849042,VALID,19.064,VALID,130,VALID,0.84375,
2002-01-02, 01:32:00,VALID,919.591,VALID,0,VALID,95.9794,VALID,-0.0849042,VALID,19.0638,VALID,143,VALID,0.821546,
2002-01-02, 01:33:00,VALID,919.579,VALID,0,VALID,96.1219,VALID,-0.101885,VALID,19.0973,VALID,142,VALID,1.15522,
2002-01-02, 01:34:00,VALID,919.573,VALID,0,VALID,96.1384,VALID,-0.101885,VALID,19.1,VALID,143,VALID,1.20877,
2002-01-02, 01:35:00,VALID,919.564,VALID,0,VALID,95.9871,VALID,-0.101885,VALID,19.1092,VALID,143,VALID,1.18034,
2002-01-02, 01:36:00,VALID,919.57,VALID,0,VALID,95.9553,VALID,-0.101885,VALID,19.1155,VALID,143,VALID,1.38692,
2002-01-02, 01:37:00,VALID,919.562,VALID,0,VALID,95.8726,VALID,-0.101885,VALID,19.1284,VALID,134,VALID,0.873522,
2002-01-02, 01:38:00,VALID,919.553,VALID,0,VALID,95.7862,VALID,-0.0849042,VALID,19.1217,VALID,135,VALID,0.575893,
2002-01-02, 01:39:00,VALID,919.543,VALID,0,VALID,95.7836,VALID,-0.0679233,VALID,19.1058,VALID,129,VALID,0.410045,
2002-01-02, 01:40:00,VALID,919.536,VALID,0,VALID,95.8307,VALID,-0.0849042,VALID,19.0996,VALID,127,VALID,0.79009,
2002-01-02, 01:41:00,VALID,919.527,VALID,0,VALID,96.0023,VALID,-0.0849042,VALID,19.103,VALID,119,VALID,0.541667,
2002-01-02, 01:42:00,VALID,919.522,VALID,0,VALID,95.996,VALID,-0.0679233,VALID,19.0929,VALID,133,VALID,0.719336,
2002-01-02, 01:43:00,VALID,919.508,VALID,0,VALID,96.0583,VALID,-0.0339617,VALID,19.0864,VALID,114,VALID,0.710938,
2002-01-02, 01:44:00,VALID,919.491,VALID,0,VALID,96.1409,VALID,-0.0849042,VALID,19.0638,VALID,110,VALID,0.95587,
2002-01-02, 01:45:00,VALID,919.48,VALID,0,VALID,96.1371,VALID,-0.101885,VALID,19.0735,VALID,119,VALID,0.793269,
2002-01-02, 01:46:00,VALID,919.461,VALID,0,VALID,96.1982,VALID,-0.0679233,VALID,19.0638,VALID,118,VALID,0.671875,
2002-01-02, 01:47:00,VALID,919.426,VALID,0,VALID,96.1893,VALID,-0.0679233,VALID,19.0442,VALID,119,VALID,0.779447,
2002-01-02, 01:48:00,VALID,919.411,VALID,0,VALID,96.1219,VALID,-0.0679233,VALID,19.0377,VALID,135,VALID,0.479911,
2002-01-02, 01:49:00,VALID,919.409,VALID,0,VALID,96.1867,VALID,-0.0509425,VALID,19.0183,VALID,124,VALID,0.51543,
2002-01-02, 01:50:00,VALID,919.401,VALID,0,VALID,96.2032,VALID,-0.0509425,VALID,19.0213,VALID,127,VALID,0.64605,
2002-01-02, 01:51:00,VALID,919.391,VALID,0,VALID,96.1931,VALID,-0.0679233,VALID,19.0439,VALID,116,VALID,0.867839,
2002-01-02, 01:52:00,VALID,919.395,VALID,0,VALID,95.8942,VALID,0.0339617,VALID,19.0455,VALID,81,VALID,0.623944,
2002-01-02, 01:53:00,VALID,919.412,VALID,0,VALID,95.4746,VALID,0,VALID,19.0263,VALID,70,VALID,0.605263,
2002-01-02, 01:54:00,VALID,919.408,VALID,0,VALID,95.4594,VALID,0.0339617,VALID,19.0268,VALID,81,VALID,0.624789,
2002-01-02, 01:55:00,VALID,919.401,VALID,0,VALID,95.4543,VALID,0.0509425,VALID,19.0169,VALID,112,VALID,0.970017,
2002-01-02, 01:56:00,VALID,919.388,VALID,0,VALID,95.3996,VALID,0.0509425,VALID,19.0298,VALID,118,VALID,0.810268,
2002-01-02, 01:57:00,VALID,919.385,VALID,0,VALID,95.4123,VALID,0.0169808,VALID,19.0164,VALID,123,VALID,0.766036,
2002-01-02, 01:58:00,VALID,919.38,VALID,0,VALID,95.5357,VALID,0.0339617,VALID,19.0137,VALID,132,VALID,0.603885,
2002-01-02, 01:59:00,VALID,919.4,VALID,0,VALID,95.5713,VALID,0.0339617,VALID,19.0139,VALID,131,VALID,0.703506,
2002-01-02, 02:00:00,VALID,919.425,VALID,0,VALID,95.8192,VALID,0.0169808,VALID,19.0134,VALID,143,VALID,0.925781,
2002-01-02, 02:01:00,VALID,919.428,VALID,0,VALID,95.7989,VALID,0.0169808,VALID,19.0137,VALID,161,VALID,0.768914,
2002-01-02, 02:02:00,VALID,919.436,VALID,0,VALID,95.9451,VALID,0.0169808,VALID,18.9977,VALID,133,VALID,0.993215,
2002-01-02, 02:03:00,VALID,919.442,VALID,0,VALID,95.9197,VALID,0.0169808,VALID,18.9587,VALID,158,VALID,1.24375,
2002-01-02, 02:04:00,VALID,919.425,VALID,0,VALID,96.0672,VALID,0,VALID,18.8912,VALID,168,VALID,0.845954,
2002-01-02, 02:05:00,VALID,919.41,VALID,0,VALID,96.2261,VALID,0,VALID,18.8196,VALID,155,VALID,0.950893,
2002-01-02, 02:06:00,VALID,919.4,VALID,0,VALID,96.6152,VALID,0.0509425,VALID,18.7908,VALID,156,VALID,1.23301,
2002-01-02, 02:07:00,VALID,919.374,VALID,0,VALID,96.8225,VALID,0.0339617,VALID,18.7615,VALID,150,VALID,0.791233,
2002-01-02, 02:08:00,VALID,919.375,VALID,0,VALID,96.8785,VALID,0.0169808,VALID,18.726,VALID,155,VALID,0.63954,
2002-01-02, 02:09:00,VALID,919.371,VALID,0,VALID,96.9993,VALID,0.0509425,VALID,18.687,VALID,157,VALID,1.02384,
2002-01-02, 02:10:00,VALID,919.386,VALID,0,VALID,97.3922,VALID,0,VALID,18.6807,VALID,144,VALID,1.34663,
2002-01-02, 02:11:00,VALID,919.389,VALID,0,VALID,97.6618,VALID,0.0339617,VALID,18.7193,VALID,144,VALID,1.71628,
2002-01-02, 02:12:00,VALID,919.389,VALID,0,VALID,97.6338,VALID,0.0339617,VALID,18.7513,VALID,152,VALID,1.5,
2002-01-02, 02:13:00,VALID,919.404,VALID,0,VALID,97.6974,VALID,0.101885,VALID,18.7712,VALID,149,VALID,1.45464,
2002-01-02, 02:14:00,VALID,919.408,VALID,0,VALID,97.6554,VALID,0.0509425,VALID,18.7965,VALID,146,VALID,1.49514,
2002-01-02, 02:15:00,VALID,919.408,VALID,0,VALID,97.5651,VALID,0.0339617,VALID,18.8129,VALID,150,VALID,1.29174,
2002-01-02, 02:16:00,VALID,919.419,VALID,0,VALID,97.6287,VALID,0.0169808,VALID,18.8586,VALID,147,VALID,1.58974,
2002-01-02, 02:17:00,VALID,919.421,VALID,0,VALID,97.5359,VALID,0.0339617,VALID,18.8845,VALID,156,VALID,1.68249,
2002-01-02, 02:18:00,VALID,919.419,VALID,0,VALID,97.4151,VALID,0,VALID,18.9195,VALID,157,VALID,1.89802,
2002-01-02, 02:19:00,VALID,919.41,VALID,0,VALID,97.2205,VALID,0.0169808,VALID,18.9357,VALID,170,VALID,1.63035,
2002-01-02, 02:20:00,VALID,919.4,VALID,0,VALID,96.97,VALID,0.0509425,VALID,18.9294,VALID,165,VALID,1.34776,
2002-01-02, 02:21:00,VALID,919.414,VALID,0,VALID,96.7399,VALID,0.0509425,VALID,18.9066,VALID,158,VALID,1.35637,
2002-01-02, 02:22:00,VALID,919.422,VALID,0,VALID,96.7805,VALID,-0.0679233,VALID,18.8757,VALID,156,VALID,1.54021,
2002-01-02, 02:23:00,VALID,919.441,VALID,0,VALID,96.9573,VALID,-0.0849042,VALID,18.8526,VALID,161,VALID,1.91345,
2002-01-02, 02:24:00,VALID,919.438,VALID,0,VALID,97.3045,VALID,-0.0509425,VALID,18.8817,VALID,157,VALID,2.18159,
2002-01-02, 02:25:00,VALID,919.448,VALID,0,VALID,97.3172,VALID,-0.0679233,VALID,18.9075,VALID,152,VALID,1.90603,
2002-01-02, 02:26:00,VALID,919.452,VALID,0,VALID,97.2396,VALID,-0.0679233,VALID,18.9361,VALID,153,VALID,1.85916,
2002-01-02, 02:27:00,VALID,919.458,VALID,0,VALID,97.0946,VALID,-0.0509425,VALID,18.9691,VALID,157,VALID,1.25576,
2002-01-02, 02:28:00,VALID,919.457,VALID,0,VALID,96.9344,VALID,-0.0509425,VALID,18.9721,VALID,157,VALID,1.44806,
2002-01-02, 02:29:00,VALID,919.468,VALID,0,VALID,96.956,VALID,-0.0679233,VALID,18.9761,VALID,154,VALID,1.5596,
2002-01-02, 02:30:00,VALID,919.464,VALID,0,VALID,96.8836,VALID,-0.0509425,VALID,18.983,VALID,142,VALID,1.20179,
2002-01-02, 02:31:00,VALID,919.452,VALID,0,VALID,96.8441,VALID,-0.0849042,VALID,18.9562,VALID,146,VALID,1.27344,
2002-01-02, 02:32:00,VALID,919.433,VALID,0,VALID,96.9802,VALID,-0.0339617,VALID,18.9502,VALID,136,VALID,1.30008,
2002-01-02, 02:33:00,VALID,919.406,VALID,0,VALID,97.0476,VALID,-0.101885,VALID,18.9659,VALID,128,VALID,1.34121,
2002-01-02, 02:34:00,VALID,919.397,VALID,0,VALID,96.923,VALID,-0.0849042,VALID,19.0019,VALID,131,VALID,1.7428,
2002-01-02, 02:35:00,VALID,919.374,VALID,0,VALID,96.7246,VALID,-0.0509425,VALID,19.0305,VALID,107,VALID,1.23163,
2002-01-02, 02:36:00,VALID,919.384,VALID,0,VALID,96.4588,VALID,-0.0339617,VALID,19.03,VALID,128,VALID,1.27524,
2002-01-02, 02:37:00,VALID,919.387,VALID,0,VALID,96.3291,VALID,-0.0509425,VALID,19.0402,VALID,132,VALID,1.41767,
2002-01-02, 02:38:00,VALID,919.377,VALID,0,VALID,96.249,VALID,-0.0849042,VALID,19.0404,VALID,124,VALID,1.28966,
2002-01-02, 02:39:00,VALID,919.371,VALID,0,VALID,96.324,VALID,-0.0849042,VALID,19.0464,VALID,120,VALID,1.99777,
2002-01-02, 02:40:00,VALID,919.383,VALID,0,VALID,96.2414,VALID,-0.101885,VALID,19.0728,VALID,123,VALID,1.37793,
2002-01-02, 02:41:00,VALID,919.387,VALID,0,VALID,96.1257,VALID,-0.0679233,VALID,19.0891,VALID,125,VALID,1.43294,
2002-01-02, 02:42:00,VALID,919.385,VALID,0,VALID,95.9922,VALID,-0.101885,VALID,19.0695,VALID,132,VALID,1.11502,
2002-01-02, 02:43:00,VALID,919.397,VALID,0,VALID,96.1486,VALID,-0.0339617,VALID,19.0792,VALID,136,VALID,1.52872,
2002-01-02, 02:44:00,VALID,919.407,VALID,0,VALID,96.1511,VALID,-0.0509425,VALID,19.0889,VALID,129,VALID,1.69182,
2002-01-02, 02:45:00,VALID,919.407,VALID,0,VALID,96.085,VALID,-0.101885,VALID,19.1021,VALID,123,VALID,1.07052,
2002-01-02, 02:46:00,VALID,919.42,VALID,0,VALID,96.1371,VALID,-0.0339617,VALID,19.0981,VALID,126,VALID,1.40097,
2002-01-02, 02:47:00,VALID,919.421,VALID,0,VALID,96.1829,VALID,-0.0169808,VALID,19.1242,VALID,138,VALID,1.37835,
2002-01-02, 02:48:00,VALID,919.427,VALID,0,VALID,96.0863,VALID,-0.0169808,VALID,19.1371,VALID,131,VALID,1.45354,
2002-01-02, 02:49:00,VALID,919.437,VALID,0,VALID,96.0214,VALID,-0.0169808,VALID,19.1438,VALID,135,VALID,1.49578,
2002-01-02, 02:50:00,VALID,919.427,VALID,0,VALID,96.0608,VALID,-0.0339617,VALID,19.1441,VALID,140,VALID,1.125,
2002-01-02, 02:51:00,VALID,919.437,VALID,0,VALID,96.1282,VALID,-0.0679233,VALID,19.1309,VALID,128,VALID,1.11602,
2002-01-02, 02:52:00,VALID,919.432,VALID,0,VALID,96.1626,VALID,-0.0849042,VALID,19.1175,VALID,122,VALID,0.838816,
2002-01-02, 02:53:00,VALID,919.43,VALID,0,VALID,96.2961,VALID,-0.0679233,VALID,19.0917,VALID,138,VALID,1.14206,
2002-01-02, 02:54:00,VALID,919.425,VALID,0,VALID,96.5746,VALID,-0.0509425,VALID,19.1016,VALID,148,VALID,1.24355,
2002-01-02, 02:55:00,VALID,919.419,VALID,0,VALID,96.6521,VALID,-0.0339617,VALID,19.1018,VALID,148,VALID,1.49239,
2002-01-02, 02:56:00,VALID,919.416,VALID,0,VALID,96.647,VALID,-0.0679233,VALID,19.0852,VALID,148,VALID,1.27366,
2002-01-02, 02:57:00,VALID,919.403,VALID,0,VALID,96.6445,VALID,-0.0509425,VALID,19.0755,VALID,144,VALID,1.42695,
2002-01-02, 02:58:00,VALID,919.391,VALID,0,VALID,96.8047,VALID,-0.0169808,VALID,19.0524,VALID,149,VALID,1.57878,
2002-01-02, 02:59:00,VALID,919.375,VALID,0,VALID,96.8619,VALID,-0.0679233,VALID,19.0663,VALID,145,VALID,1.38346,
2002-01-02, 03:00:00,VALID,919.378,VALID,0,VALID,96.8416,VALID,-0.0169808,VALID,19.0663,VALID,140,VALID,1.3141,
2002-01-02, 03:01:00,VALID,919.395,VALID,0,VALID,96.9141,VALID,-0.0679233,VALID,19.0665,VALID,154,VALID,1.46135,
2002-01-02, 03:02:00,VALID,919.393,VALID,0,VALID,97.0133,VALID,-0.0849042,VALID,19.0598,VALID,145,VALID,1.59293,
2002-01-02, 03:03:00,VALID,919.386,VALID,0,VALID,97.0336,VALID,-0.0849042,VALID,19.0728,VALID,154,VALID,1.6402,
2002-01-02, 03:04:00,VALID,919.37,VALID,0,VALID,96.9929,VALID,-0.0679233,VALID,19.0665,VALID,153,VALID,1.78038,
2002-01-02, 03:05:00,VALID,919.381,VALID,0,VALID,97.0527,VALID,-0.0509425,VALID,19.0499,VALID,148,VALID,1.30638,
2002-01-02, 03:06:00,VALID,919.358,VALID,0,VALID,97.0667,VALID,-0.0339617,VALID,19.0501,VALID,154,VALID,1.23951,
2002-01-02, 03:07:00,VALID,919.356,VALID,0,VALID,97.0807,VALID,0.0339617,VALID,19.0226,VALID,145,VALID,1.68389,
2002-01-02, 03:08:00,VALID,919.359,VALID,0,VALID,97.232,VALID,0.0679233,VALID,19.0293,VALID,148,VALID,2.17087,
2002-01-02, 03:09:00,VALID,919.364,VALID,0,VALID,97.1836,VALID,0,VALID,19.0291,VALID,153,VALID,1.89485,
2002-01-02, 03:10:00,VALID,919.382,VALID,0,VALID,97.1862,VALID,0.0509425,VALID,19.0129,VALID,150,VALID,1.45724,
2002-01-02, 03:11:00,VALID,919.401,VALID,0,VALID,97.2269,VALID,0.0169808,VALID,18.9873,VALID,145,VALID,1.59756,
2002-01-02, 03:12:00,VALID,919.425,VALID,0,VALID,97.2727,VALID,0.101885,VALID,18.9682,VALID,147,VALID,1.88201,
2002-01-02, 03:13:00,VALID,919.434,VALID,0,VALID,97.3121,VALID,0.0509425,VALID,18.9518,VALID,146,VALID,1.51585,
2002-01-02, 03:14:00,VALID,919.43,VALID,0,VALID,97.5155,VALID,0.0169808,VALID,18.952,VALID,143,VALID,2.12644,
2002-01-02, 03:15:00,VALID,919.428,VALID,0,VALID,97.5422,VALID,0.0169808,VALID,18.9652,VALID,138,VALID,1.53209,
2002-01-02, 03:16:00,VALID,919.412,VALID,0,VALID,97.4799,VALID,0.0339617,VALID,18.9421,VALID,142,VALID,1.61176,
2002-01-02, 03:17:00,VALID,919.412,VALID,0,VALID,97.5244,VALID,0.0679233,VALID,18.9359,VALID,140,VALID,1.91385,
2002-01-02, 03:18:00,VALID,919.415,VALID,0,VALID,97.5817,VALID,0.0339617,VALID,18.916,VALID,137,VALID,1.46135,
2002-01-02, 03:19:00,VALID,919.395,VALID,0,VALID,97.5079,VALID,0.0509425,VALID,18.9262,VALID,127,VALID,1.61043,
2002-01-02, 03:20:00,VALID,919.393,VALID,0,VALID,97.5588,VALID,0.0339617,VALID,18.8867,VALID,125,VALID,1.86004,
2002-01-02, 03:21:00,VALID,919.38,VALID,0,VALID,97.6249,VALID,0.0169808,VALID,18.9036,VALID,113,VALID,1.5683,
2002-01-02, 03:22:00,VALID,919.376,VALID,0,VALID,97.5893,VALID,-0.0509425,VALID,18.8916,VALID,106,VALID,1.63035,
2002-01-02, 03:23:00,VALID,919.365,VALID,0,VALID,97.5842,VALID,-0.0679233,VALID,18.8852,VALID,114,VALID,1.55829,
2002-01-02, 03:24:00,VALID,919.329,VALID,0,VALID,97.5105,VALID,-0.0509425,VALID,18.9013,VALID,128,VALID,0.99668,
2002-01-02, 03:25:00,VALID,919.317,VALID,0,VALID,97.5461,VALID,-0.0169808,VALID,18.8827,VALID,119,VALID,1.79873,
2002-01-02, 03:26:00,VALID,919.319,VALID,0,VALID,97.5995,VALID,-0.0509425,VALID,18.8725,VALID,114,VALID,1.48079,
2002-01-02, 03:27:00,VALID,919.313,VALID,0,VALID,97.6999,VALID,-0.0509425,VALID,18.866,VALID,97,VALID,1.35897,
2002-01-02, 03:28:00,VALID,919.327,VALID,0,VALID,97.6872,VALID,-0.0509425,VALID,18.8533,VALID,106,VALID,1.11719,
2002-01-02, 03:29:00,VALID,919.344,VALID,0,VALID,97.7711,VALID,-0.0509425,VALID,18.8166,VALID,104,VALID,1.63602,
2002-01-02, 03:30:00,VALID,919.337,VALID,0,VALID,97.7711,VALID,-0.0509425,VALID,18.8303,VALID,126,VALID,1.89353,
2002-01-02, 03:31:00,VALID,919.347,VALID,0,VALID,97.7088,VALID,-0.0849042,VALID,18.8275,VALID,105,VALID,1.65957,
2002-01-02, 03:32:00,VALID,919.35,VALID,0,VALID,97.733,VALID,-0.0169808,VALID,18.8399,VALID,107,VALID,1.93924,